Weather History for St. Thomas, VI

Change the Weather History Date:

Saturday, July 6, 2013

  Actual Average Record
Temperature  
Mean Temperature 83 °F 84 °F  
Max Temperature 88 °F 90 °F 94 °F (1995)
Min Temperature 77 °F 78 °F 72 °F (1963)
Degree Days  
Heating Degree Days 0 0  
Month to date heating degree days 0 0  
Since 1 June heating degree days 0 0  
Since 1 July heating degree days 0 0  
Cooling Degree Days 18 19  
Month to date cooling degree days 106 114  
Year to date cooling degree days 2838 2921  
Since 1 June cooling degree days 642 669  
Growing Degree Days 32 (Base 50)    
Moisture  
Dew Point 74 °F    
Average Humidity 74    
Maximum Humidity 85    
Minimum Humidity 63    
Precipitation  
Precipitation 0.08 in 0.09 in 1.73 in (1963)
Month to date precipitation 0.56 0.55  
Year to date precipitation 13.82 14.11  
Sea Level Pressure  
Sea Level Pressure 29.99 in    
Wind  
Wind Speed 10 mph (East)    
Max Wind Speed 21 mph    
Max Gust Speed 26 mph    
Visibility 10 miles    
Events Rain    
T = Trace of Precipitation, MM = Missing Value Source: NWS Daily Summary

Daily Weather History Graph

Daily Weather History Graph

Search for Another Location

Airport:

Trip Planner

Search our weather history database for the weather conditions in past years. The results will help you decide how hot, cold, wet, or windy it might be!

Date:

Astronomy

Jul. 06, 2013 Rise Set
Actual Time 5:49 AM AST 7:00 PM AST
Civil Twilight 5:24 AM AST 7:24 PM AST
Nautical Twilight 4:56 AM AST 7:52 PM AST
Astronomical Twilight 4:27 AM AST 8:22 PM AST
Moon 4:25 AM AST (7/6) 5:45 PM AST (7/6)
Length of Visible Light 13h 59m
Length of Day
13h 11m
Waning Crescent, 2% of the Moon is Illuminated
Jul 6
Waning Crescent
Jul 8
New
Jul 15
First Quarter
Jul 22
Full
Jul 29
Last Quarter

Hourly Weather History & Observations

Time (AST) Temp. Heat Index Dew Point Humidity Pressure Visibility Wind Dir Wind Speed Gust Speed Precip Events Conditions
12:53 AM 81.0 °F 86.2 °F 73.9 °F 79% 30.00 in 10.0 mi East 11.5 mph 19.6 mph N/A   Overcast
1:53 AM 80.1 °F 84.2 °F 73.0 °F 79% 29.98 in 10.0 mi ENE 11.5 mph 24.2 mph N/A   Overcast
2:53 AM 81.0 °F 86.2 °F 73.9 °F 79% 29.98 in 10.0 mi East 10.4 mph - N/A   Overcast
3:44 AM 78.8 °F - 75.2 °F 89% 29.97 in 10.0 mi East 11.5 mph - 0.02 in   Overcast
3:53 AM 78.1 °F - 73.9 °F 87% 29.98 in 10.0 mi East 11.5 mph 20.7 mph 0.02 in Rain Light Rain
4:53 AM 79.0 °F - 73.9 °F 84% 29.98 in 10.0 mi ENE 9.2 mph - 0.00 in   Scattered Clouds
5:22 AM 78.8 °F - 73.4 °F 83% 29.98 in 10.0 mi East 16.1 mph 23.0 mph N/A   Mostly Cloudy
5:53 AM 79.0 °F - 73.0 °F 82% 29.99 in 10.0 mi East 13.8 mph - N/A   Overcast
6:53 AM 80.1 °F 84.2 °F 73.0 °F 79% 30.01 in 10.0 mi East 9.2 mph - N/A   Overcast
7:01 AM 80.6 °F 85.4 °F 73.4 °F 79% 30.00 in 10.0 mi East 10.4 mph - N/A   Partly Cloudy
7:53 AM 80.1 °F 84.5 °F 73.9 °F 81% 30.03 in 10.0 mi ESE 15.0 mph - 0.00 in Rain Light Rain
8:53 AM 84.0 °F 91.9 °F 75.0 °F 74% 30.03 in 10.0 mi East 10.4 mph - 0.00 in   Scattered Clouds
9:00 AM 84.2 °F 90.9 °F 73.4 °F 70% 30.02 in 10.0 mi East 12.7 mph 18.4 mph N/A   Overcast
9:53 AM 86.0 °F 93.0 °F 73.0 °F 65% 30.03 in 10.0 mi East 10.4 mph - N/A   Overcast
10:10 AM 87.8 °F 95.6 °F 73.4 °F 62% 30.02 in 10.0 mi ESE 10.4 mph - N/A   Overcast
10:53 AM 88.0 °F 96.5 °F 73.9 °F 63% 30.03 in 10.0 mi East 12.7 mph - N/A   Overcast
11:12 AM 87.8 °F 95.6 °F 73.4 °F 62% 30.03 in 10.0 mi ESE 11.5 mph 19.6 mph N/A   Overcast
11:53 AM 87.1 °F 95.4 °F 73.9 °F 65% 30.02 in 10.0 mi ENE 9.2 mph 21.9 mph N/A   Overcast
12:53 PM 82.9 °F 92.8 °F 78.1 °F 85% 30.01 in 9.0 mi ENE 12.7 mph 20.7 mph 0.02 in Rain Light Rain
1:00 PM 84.2 °F 96.1 °F 78.8 °F 84% 30.00 in 10.0 mi ENE 10.4 mph 19.6 mph 0.00 in   Overcast
1:17 PM 86.0 °F 95.1 °F 75.2 °F 70% 30.00 in 10.0 mi East 11.5 mph 20.7 mph 0.00 in   Overcast
1:34 PM 87.8 °F 97.6 °F 75.2 °F 66% 29.99 in 10.0 mi East 12.7 mph - 0.00 in   Overcast
1:53 PM 84.0 °F 91.9 °F 75.0 °F 74% 29.99 in 10.0 mi East 10.4 mph - 0.00 in   Overcast
2:38 PM 87.8 °F 97.6 °F 75.2 °F 66% 29.97 in 10.0 mi East 8.1 mph - N/A   Overcast
2:53 PM 87.1 °F 94.5 °F 73.0 °F 63% 29.97 in 10.0 mi ESE 9.2 mph - N/A   Overcast
3:06 PM 87.8 °F 95.6 °F 73.4 °F 62% 29.96 in 10.0 mi SE 11.5 mph - N/A   Mostly Cloudy
3:19 PM 84.2 °F 90.9 °F 73.4 °F 70% 29.96 in 10.0 mi SE 11.5 mph - N/A   Mostly Cloudy
3:53 PM 82.9 °F 90.8 °F 75.9 °F 79% 29.96 in 10.0 mi East 9.2 mph 19.6 mph 0.00 in Rain Light Rain
4:53 PM 82.9 °F 88.8 °F 73.0 °F 72% 29.95 in 10.0 mi East 11.5 mph - 0.00 in   Mostly Cloudy
5:53 PM 82.9 °F 90.2 °F 75.0 °F 77% 29.95 in 10.0 mi East 12.7 mph - N/A   Partly Cloudy
6:53 PM 82.0 °F 87.9 °F 73.9 °F 76% 29.96 in 10.0 mi East 11.5 mph - N/A   Overcast
7:53 PM 80.1 °F 85.4 °F 75.9 °F 87% 29.97 in 10.0 mi East 8.1 mph 17.3 mph 0.04 in   Clear
8:53 PM 80.1 °F 85.4 °F 75.9 °F 87% 29.98 in 10.0 mi East 9.2 mph - N/A   Clear
9:53 PM 80.1 °F 85.1 °F 75.0 °F 85% 29.99 in 10.0 mi East 8.1 mph - N/A   Clear
10:53 PM 80.1 °F 85.4 °F 75.9 °F 87% 29.99 in 10.0 mi ESE 6.9 mph - N/A   Clear
11:53 PM 80.1 °F 85.1 °F 75.0 °F 85% 29.99 in 10.0 mi East 6.9 mph - N/A   Clear